Location: Newark
(55.2875°N, 3.1864°W)
Time: 00:21:18
(UTC+00:00)

ISS - Pass Details

Date: 27 January 2020
Orbit: 415 x 423 km, 51.6° (Epoch: 25 February)

Event Time Altitude Azimuth Distance (km) Brightness Sun altitude
Rises 18:09:16 0° 237° (WSW) 2,376 1.6 -12.8°
Reaches altitude 10° 18:11:29 10° 228° (SW) 1,512 0.1 -13.1°
Maximum altitude 18:14:34 33° 163° (SSE) 740 -2.6 -13.6°
Enters shadow 18:16:11 21° 114° (ESE) 1,015 -2.3 -13.8°
